FW8600 Weather Reports


time (UTC)temp
F
wind
direction
speed
knots
gust
knots
rain 1hr
in
rain 24hr
in
rain mn
in
humidity
%
barometer
mb
20260508210030 66 63 2.6 10.4 0.00 0.00 0.00 57 1014.3
20260508204530 66 286 5.2 9.6 0.00 0.00 0.00 57 1014.4
20260508203031 66 22 5.2 11.3 0.00 0.00 0.00 55 1014.4
20260508201535 66 316 2.6 10.4 0.00 0.00 0.00 58 1014.6
20260508200049 66 352 6.1 12.2 0.00 0.00 0.00 57 1014.7
20260508194532 66 322 7.0 11.3 0.00 0.00 0.00 56 1014.9
20260508193036 68 23 5.2 11.3 0.00 0.00 0.00 53 1015.3
20260508191538 66 349 5.2 12.2 0.00 0.00 0.00 54 1015.5
20260508190033 66 37 3.5 14.8 0.00 0.00 0.00 54 1015.7
20260508184532 65 321 5.2 10.4 0.00 0.00 0.00 53 1016.0
20260508183033 66 295 7.8 13.0 0.00 0.00 0.00 51 1016.3
20260508181531 67 328 5.2 10.4 0.00 0.00 0.00 48 1016.1
20260508180029 66 30 4.3 12.2 0.00 0.00 0.00 51 1016.5
20260508174537 65 326 5.2 9.6 0.00 0.00 0.00 52 1016.7
20260508173031 65 290 3.5 12.2 0.00 0.00 0.00 50 1016.8
20260508171536 64 61 2.6 7.8 0.00 0.00 0.00 54 1017.1
20260508170030 63 319 3.5 9.6 0.00 0.00 0.00 54 1017.4
20260508164531 64 329 6.1 10.4 0.00 0.00 0.00 54 1017.7
20260508163034 64 38 5.2 10.4 0.00 0.00 0.00 55 1017.8
20260508161533 64 26 5.2 9.6 0.00 0.00 0.00 54 1018.0
20260508160030 64 16 3.5 7.0 0.00 0.00 0.00 59 1018.2
20260508154532 64 22 3.5 7.0 0.00 0.00 0.00 58 1018.4
20260508153036 65 332 2.6 6.1 0.00 0.00 0.00 57 1018.4
20260508151529 65 84 0.0 2.6 0.00 0.00 0.00 59 1018.5
20260508150032 64 1 1.7 5.2 0.00 0.00 0.00 58 1018.5
20260508144530 61 104 2.6 4.3 0.00 0.00 0.00 62 1018.6
20260508143032 63 278 0.9 4.3 0.00 0.00 0.00 59 1018.8
20260508141533 61 82 0.9 3.5 0.00 0.00 0.00 61 1018.7
20260508140032 59 61 0.0 3.5 0.00 0.00 0.00 62 1018.8
20260508134531 57 26 1.7 3.5 0.00 0.00 0.00 64 1018.9
20260508133030 56 303 1.7 3.5 0.00 0.00 0.00 62 1018.9
20260508131532 55 23 0.0 3.5 0.00 0.00 0.00 70 1018.9
20260508130031 54 308 1.7 3.5 0.00 0.00 0.00 75 1018.7
20260508124530 53 355 0.9 2.6 0.00 0.01 0.00 79 1018.5
20260508123030 53 24 0.0 1.7 0.00 0.01 0.00 78 1018.5
20260508121530 52 62 0.0 0.9 0.00 0.01 0.00 86 1018.4
20260508120038 49 0 0.0 0.9 0.00 0.01 0.00 92 1018.3
20260508114531 46 0 0.0 0.0 0.00 0.11 0.00 95 1018.0
20260508113035 45 0 0.0 0.0 0.00 0.11 0.00 97 1017.6
20260508111533 43 0 0.0 0.9 0.00 0.11 0.00 98 1017.4
20260508110030 42 0 0.0 0.9 0.00 0.11 0.00 97 1017.2
20260508104531 43 83 0.0 0.9 0.00 0.12 0.00 98 1017.0
20260508103035 42 0 0.0 0.0 0.00 0.12 0.00 98 1016.5
20260508101531 42 0 0.0 0.0 0.00 0.12 0.00 98 1016.5
20260508100032 42 0 0.0 0.0 0.00 0.12 0.00 97 1016.2
20260508094531 43 0 0.0 0.9 0.00 0.12 0.00 98 1016.2
20260508093031 43 0 0.0 0.9 0.00 0.12 0.00 97 1016.2
20260508091536 43 0 0.0 1.7 0.00 0.12 0.00 97 1015.9
20260508090032 43 0 0.0 0.9 0.00 0.12 0.00 97 1016.2
20260508084532 43 0 0.0 0.9 0.00 0.12 0.00 97 1016.0
20260508083032 44 0 0.0 0.9 0.00 0.12 0.00 97 1015.8
20260508081542 44 0 0.0 0.9 0.00 0.12 0.00 97 1015.7
20260508080031 44 0 0.0 0.0 0.00 0.12 0.00 97 1015.5
20260508074530 44 0 0.0 0.0 0.00 0.12 0.00 97 1015.5
20260508073030 44 0 0.0 0.0 0.00 0.12 0.00 96 1015.4
20260508071530 45 0 0.0 0.0 0.00 0.12 0.00 96 1015.3
20260508070032 45 0 0.0 0.0 0.00 0.12 0.00 95 1015.2
20260508064532 45 0 0.0 0.0 0.00 0.12 0.00 95 1015.2
20260508063032 46 0 0.0 0.9 0.00 0.12 0.00 95 1015.0
20260508061531 46 0 0.0 0.9 0.00 0.12 0.00 94 1015.0
20260508060029 46 0 0.0 0.9 0.00 0.12 0.00 94 1015.1
20260508054532 46 0 0.0 0.0 0.00 0.17 0.00 94 1015.0
20260508053101 46 0 0.0 0.0 0.00 0.17 0.00 94 1015.1
20260508051535 47 0 0.0 0.0 0.00 0.17 0.00 94 1014.9
20260508050033 46 0 0.0 0.0 0.00 0.17 0.00 94 1014.7
20260508044531 46 0 0.0 0.0 0.00 0.22 0.00 94 1014.5
20260508043031 46 0 0.0 0.0 0.00 0.22 0.00 94 1014.5
20260508041534 47 0 0.0 0.0 0.00 0.22 0.00 93 1014.4
20260508040032 47 0 0.0 0.0 0.00 0.22 0.00 93 1014.4
20260508034534 47 0 0.0 0.9 0.00 0.22 0.22 92 1014.5
20260508033032 48 0 0.0 0.9 0.00 0.22 0.22 90 1014.5
20260508031532 48 0 0.0 0.9 0.00 0.22 0.22 89 1014.5
20260508030032 49 280 0.0 0.0 0.00 0.22 0.22 89 1014.5
20260508024533 49 0 0.0 0.0 0.00 0.24 0.22 87 1014.4
20260508023030 50 0 0.0 0.9 0.00 0.24 0.22 85 1014.0
20260508021534 51 0 0.0 0.9 0.00 0.24 0.22 83 1013.9
20260508020037 52 0 0.0 2.6 0.00 0.24 0.22 81 1013.7
20260508014530 53 0 0.0 0.0 0.00 0.26 0.22 78 1013.4
20260508013033 54 0 0.0 0.9 0.00 0.26 0.22 74 1013.2
20260508011530 56 0 0.0 3.5 0.00 0.26 0.22 71 1012.8
20260508010033 56 98 0.9 2.6 0.00 0.26 0.22 69 1012.7
20260508004530 57 120 0.9 3.5 0.00 0.39 0.22 69 1012.5
20260508003030 57 57 0.0 3.5 0.00 0.39 0.22 68 1012.3
20260508001529 58 134 2.6 11.3 0.00 0.39 0.22 68 1011.8
20260508000033 58 158 1.7 8.7 0.00 0.39 0.22 69 1011.7
20260507234539 59 104 1.7 7.8 0.00 0.47 0.22 70 1011.9
20260507233032 61 285 1.7 7.0 0.00 0.47 0.22 68 1011.7
20260507231531 61 53 1.7 6.1 0.00 0.47 0.22 69 1011.6
20260507230033 62 0 0.9 7.8 0.00 0.47 0.22 68 1011.6
20260507224533 63 34 1.7 5.2 0.00 0.48 0.22 68 1011.3
20260507223032 63 56 1.7 6.1 0.00 0.48 0.22 68 1011.0
20260507221530 63 283 3.5 10.4 0.00 0.48 0.22 68 1010.7
20260507220030 65 333 2.6 7.8 0.00 0.48 0.22 66 1010.4
20260507214531 68 56 0.9 4.3 0.00 0.48 0.22 64 1010.1
20260507213038 70 114 0.9 6.1 0.00 0.48 0.22 63 1009.8
20260507211534 71 12 0.9 8.7 0.00 0.48 0.22 63 1009.6